This is the latest recevied weather packets stored in our database for station/object KO4LCK. If no packets are shown the sender has not sent any weather packets the latest 10 day(s).
| Time | Temp. | Humidity | Pressure | Rain* | Wind** | Luminosity | Snow |
|---|---|---|---|---|---|---|---|
| 1788039682 | 32.78° C | 55% | 1019.3 hPa | 0 mm | - | 319 W/m² | - |
| 1788039376 | 32.78° C | 55% | 1019.3 hPa | 0 mm | - | 145 W/m² | - |
| 1788039073 | 33.33° C | 53% | 1019.4 hPa | 0 mm | - | 136 W/m² | - |
| 1788038768 | 33.33° C | 53% | 1019.3 hPa | 0 mm | - | 129 W/m² | - |
| 1788038462 | 32.78° C | 55% | 1019.3 hPa | 0 mm | - | 409 W/m² | - |
| 1788038161 | 32.78° C | 56% | 1019.2 hPa | 0 mm | - | 434 W/m² | - |
| 1788037867 | 33.89° C | 54% | 1019.4 hPa | 0 mm | - | 152 W/m² | - |
| 1788037551 | 34.44° C | 52% | 1019.5 hPa | 0 mm | - | 178 W/m² | - |
| 1788037246 | 33.89° C | 52% | 1019.5 hPa | 0 mm | - | 488 W/m² | - |
| 1788036945 | 33.33° C | 54% | 1019.5 hPa | 0 mm | - | 510 W/m² | - |
| 1788036642 | 33.33° C | 53% | 1019.4 hPa | 0 mm | - | 143 W/m² | - |
| 1788036338 | 33.89° C | 52% | 1019.4 hPa | 0 mm | - | 490 W/m² | - |
| 1788036038 | 33.89° C | 53% | 1019.4 hPa | 0 mm | - | 533 W/m² | - |
| 1788035737 | 33.89° C | 53% | 1019.3 hPa | 0 mm | - | 541 W/m² | - |
| 1788035433 | 33.33° C | 54% | 1019.4 hPa | 0 mm | - | 554 W/m² | - |
| 1788035142 | 33.33° C | 53% | 1019.6 hPa | 0 mm | - | 583 W/m² | - |
| 1788034829 | 33.33° C | 53% | 1019.5 hPa | 0 mm | - | 589 W/m² | - |
| 1788034525 | 33.33° C | 54% | 1019.7 hPa | 0 mm | - | 601 W/m² | - |
| 1788034221 | 33.33° C | 55% | 1019.7 hPa | 0 mm | - | 602 W/m² | - |
| 1788033920 | 33.33° C | 54% | 1020 hPa | 0 mm | - | 595 W/m² | - |
| 1788033615 | 33.89° C | 53% | 1020.1 hPa | 0 mm | - | 152 W/m² | - |
| 1788033308 | 33.33° C | 53% | 1020.2 hPa | 0 mm | - | 641 W/m² | - |
| 1788033005 | 33.89° C | 54% | 1020.2 hPa | 0 mm | - | 672 W/m² | - |
| 1788032704 | 33.89° C | 53% | 1020 hPa | 0 mm | - | 670 W/m² | - |
| 1788032400 | 33.89° C | 54% | 1020.1 hPa | 0 mm | - | 680 W/m² | - |
* Rain latest hour (hover to see other rain measurements)
** Current wind speed in m/s (hover to see current wind gust speed)